Weather History for KVRB - October, 2012

Change the Weather History Date:

Friday, October 26, 2012

  Actual Average Record
Temperature  
Mean Temperature 73 °F 74 °F  
Max Temperature 78 °F 83 °F 92 °F (1997)
Min Temperature 67 °F 66 °F 48 °F (2005)
Degree Days  
Heating Degree Days 0 0  
Month to date heating degree days 0 0  
Since 1 July heating degree days 0 0  
Cooling Degree Days 8 10  
Month to date cooling degree days 351 316  
Year to date cooling degree days 3336 3083  
Growing Degree Days 22 (Base 50)    
Moisture  
Dew Point 67 °F    
Average Humidity 77    
Maximum Humidity 90    
Minimum Humidity 64    
Precipitation  
Precipitation 0.80 in 0.12 in 0.80 in (2012)
Month to date precipitation 4.65 4.35  
Year to date precipitation 45.49 45.84  
Sea Level Pressure  
Sea Level Pressure 29.59 in    
Wind  
Wind Speed 21 mph (North)    
Max Wind Speed 35 mph    
Max Gust Speed 53 mph    
Visibility 8 miles    
Events Rain    
T = Trace of Precipitation, MM = Missing Value Source: NWS Daily Summary

Daily Weather History Graph

Daily Weather History Graph

Search for Another Location

Airport or City:

Trip Planner

Search our weather history database for the weather conditions in past years. The results will help you decide how hot, cold, wet, or windy it might be!

Date:

Astronomy

Oct. 26, 2012 Rise Set
Actual Time 7:28 AM EDT 6:41 PM EDT
Civil Twilight 7:04 AM EDT 7:05 PM EDT
Nautical Twilight 6:37 AM EDT 7:33 PM EDT
Astronomical Twilight 6:10 AM EDT 8:00 PM EDT
Moon 4:46 PM EDT (10/26) 4:36 AM EDT (10/26)
Length of Visible Light 12h 01m
Length of Day
11h 13m
Waxing Gibbous, 91% of the Moon is Illuminated
Oct 26
Waxing Gibbous
Oct 29
Full
Nov 6
Last Quarter
Nov 13
New
Nov 20
First Quarter

Hourly Weather History & Observations

Time (EDT) Temp. Dew Point Humidity Pressure Visibility Wind Dir Wind Speed Gust Speed Precip Events Conditions
12:53 AM 70.0 °F 66.9 °F 90% 29.73 in 10.0 mi NE 10.4 mph - 0.07 in Rain Light Rain
2:53 AM 73.9 °F 66.0 °F 76% 29.68 in 10.0 mi NNE 13.8 mph 19.6 mph N/A   Mostly Cloudy
3:09 AM 69.8 °F 62.6 °F 78% 29.68 in 5.0 mi ENE 19.6 mph 31.1 mph 0.02 in Rain Light Rain
3:39 AM 69.8 °F 66.2 °F 88% 29.65 in 10.0 mi North 11.5 mph - 0.06 in Rain Light Rain
3:53 AM 72.0 °F 68.0 °F 87% 29.64 in 10.0 mi North 12.7 mph - 0.06 in   Mostly Cloudy
4:53 AM 71.1 °F 66.0 °F 84% 29.63 in 10.0 mi North 16.1 mph - 0.07 in   Overcast
5:53 AM 70.0 °F 66.9 °F 90% 29.63 in 10.0 mi North 10.4 mph - 0.00 in   Overcast
6:53 AM 69.1 °F 66.0 °F 90% 29.65 in 4.0 mi North 26.5 mph 33.4 mph 0.01 in Rain Rain
7:53 AM 72.0 °F 70.0 °F 93% 29.62 in 7.0 mi North 11.5 mph - 0.11 in   Mostly Cloudy
8:53 AM 75.9 °F 66.9 °F 74% 29.62 in 9.0 mi NNE 18.4 mph 36.8 mph 0.00 in   Overcast
9:53 AM 72.0 °F 69.1 °F 91% 29.63 in 3.0 mi NE 23.0 mph 52.9 mph 0.01 in Rain Light Rain
10:53 AM 75.9 °F 69.1 °F 79% 29.62 in 9.0 mi NNE 24.2 mph 39.1 mph 0.00 in   Overcast
11:53 AM 75.0 °F 69.1 °F 82% 29.61 in 10.0 mi North 20.7 mph 29.9 mph 0.00 in Rain Light Rain
12:16 PM 73.4 °F 68.0 °F 83% 29.60 in 1.8 mi North 23.0 mph 36.8 mph 0.01 in Rain Heavy Rain
12:28 PM 73.4 °F 71.6 °F 94% 29.59 in 3.0 mi NNE 21.9 mph 33.4 mph 0.08 in Rain Light Rain
12:53 PM 75.0 °F 69.1 °F 82% 29.59 in 8.0 mi NNE 27.6 mph 35.7 mph 0.08 in Rain Light Rain
1:53 PM 77.0 °F 69.1 °F 76% 29.55 in 10.0 mi North 26.5 mph 35.7 mph 0.00 in   Mostly Cloudy
2:53 PM 77.0 °F 66.0 °F 69% 29.54 in 10.0 mi North 28.8 mph 43.7 mph N/A   Overcast
3:32 PM 77.0 °F 66.2 °F 69% 29.53 in 10.0 mi North 24.2 mph 36.8 mph N/A   Mostly Cloudy
3:53 PM 77.0 °F 64.9 °F 66% 29.52 in 10.0 mi North 28.8 mph 40.3 mph N/A   Overcast
4:53 PM 75.9 °F 64.0 °F 67% 29.52 in 10.0 mi North 26.5 mph 39.1 mph N/A   Overcast
5:53 PM 75.0 °F 64.9 °F 71% 29.51 in 9.0 mi North 25.3 mph 41.4 mph N/A   Overcast
6:53 PM 75.0 °F 66.0 °F 73% 29.52 in 10.0 mi North 29.9 mph 42.6 mph N/A   Mostly Cloudy
7:53 PM 72.0 °F 66.9 °F 84% 29.52 in 10.0 mi North 26.5 mph 38.0 mph 0.01 in   Overcast
9:24 PM 71.6 °F 66.2 °F 83% 29.53 in 4.0 mi North 26.5 mph 34.5 mph 0.02 in Rain Heavy Rain
9:32 PM 71.6 °F 68.0 °F 88% 29.54 in 5.0 mi NNW 19.6 mph 36.8 mph 0.04 in Rain Light Rain
9:53 PM 71.1 °F 66.0 °F 84% 29.53 in 9.0 mi NNW 25.3 mph 35.7 mph 0.04 in   Overcast
10:39 PM 69.8 °F 66.2 °F 88% 29.54 in 2.5 mi NNW 17.3 mph 33.4 mph 0.11 in Rain Heavy Rain
10:47 PM 68.0 °F 66.2 °F 94% 29.54 in 3.0 mi NNW 17.3 mph 27.6 mph 0.17 in Rain Rain
11:53 PM 69.1 °F 66.9 °F 93% 29.52 in 10.0 mi NW 15.0 mph - 0.02 in Rain Light Rain